Savoonga, AK

10:25 PM AKDT on September 24, 2017 (GMT -0800)
Savoonga

Weather History for PASA - May, 2014

Change the Weather History Date:

Sunday, May 4, 2014

  Actual Average Record
Temperature  
Mean Temperature 28 °F -  
Max Temperature 30 °F 27 °F 39 °F (2002)
Min Temperature 24 °F 20 °F 0 °F (1998)
Degree Days  
Heating Degree Days 37    
Moisture  
Dew Point 23 °F    
Average Humidity 82    
Maximum Humidity 93    
Minimum Humidity 69    
Precipitation  
Precipitation 0.00 in - - ()
Sea Level Pressure  
Sea Level Pressure 30.15 in    
Wind  
Wind Speed 13 mph (West)    
Max Wind Speed 21 mph    
Max Gust Speed 22 mph    
Visibility 10 miles    
Events      
Averages and records for this station are not official NWS values.
T = Trace of Precipitation, MM = Missing Value Source: NWS Daily Summary

Daily Weather History Graph

Daily Weather History Graph

Search for Another Location

Airport or City:

Trip Planner

Search our weather history database for the weather conditions in past years. The results will help you decide how hot, cold, wet, or windy it might be!

Date:

Astronomy

May. 04, 2014 Rise Set
Actual Time 6:46 AM AKDT 11:53 PM AKDT
Civil Twilight 5:35 AM AKDT 1:05 AM AKDT
Nautical Twilight 3:51 AM AKDT 2:46 AM AKDT
Astronomical Twilight Sun does not set Sun does not set
Moon 11:18 AM AKDT (5/4) 4:13 AM AKDT (5/4)
Length of Visible Light 19h 30m
Length of Day
17h 06m
Waxing Crescent, 29% of the Moon is Illuminated
May 4
Waxing Crescent
May 6
First Quarter
May 14
Full
May 21
Last Quarter
May 28
New

Hourly Weather History & Observations

Time (AKDT) Temp. Windchill Dew Point Humidity Pressure Visibility Wind Dir Wind Speed Gust Speed Precip Events Conditions
12:16 AM 30.2 °F 18.5 °F 26.6 °F 86% 30.07 in 10.0 mi WSW 17.3 mph - N/A   Overcast
12:36 AM 30.2 °F 18.5 °F 26.6 °F 86% 30.07 in 10.0 mi WSW 17.3 mph - N/A   Overcast
12:56 AM 30.2 °F 18.1 °F 26.6 °F 86% 30.07 in 10.0 mi WSW 18.4 mph - N/A   Overcast
1:16 AM 30.2 °F 18.9 °F 26.6 °F 86% 30.07 in 10.0 mi WSW 16.1 mph - N/A   Overcast
1:36 AM 30.2 °F 18.1 °F 26.6 °F 86% 30.08 in 10.0 mi WSW 18.4 mph - N/A   Overcast
1:56 AM 30.2 °F 18.1 °F 26.6 °F 86% 30.07 in 10.0 mi WSW 18.4 mph - N/A   Overcast
2:16 AM 30.2 °F 17.8 °F 26.6 °F 86% 30.07 in 10.0 mi WSW 19.6 mph - N/A   Overcast
2:36 AM 30.2 °F 18.5 °F 26.6 °F 86% 30.07 in 10.0 mi WSW 17.3 mph - N/A   Overcast
2:56 AM 30.2 °F 18.1 °F 26.6 °F 86% 30.07 in 9.0 mi WSW 18.4 mph - N/A   Overcast
3:16 AM 30.2 °F 18.1 °F 26.6 °F 86% 30.07 in 10.0 mi WSW 18.4 mph - N/A   Overcast
3:36 AM 30.2 °F 18.9 °F 26.6 °F 86% 30.08 in 10.0 mi WSW 16.1 mph - N/A   Overcast
3:56 AM 30.2 °F 19.3 °F 26.6 °F 86% 30.08 in 10.0 mi West 15.0 mph - N/A   Overcast
4:16 AM 30.2 °F 18.5 °F 26.6 °F 86% 30.08 in 10.0 mi WSW 17.3 mph - N/A   Overcast
4:36 AM 30.2 °F 18.9 °F 26.6 °F 86% 30.09 in 10.0 mi West 16.1 mph - N/A   Overcast
4:56 AM 30.2 °F 18.9 °F 26.6 °F 86% 30.09 in 10.0 mi West 16.1 mph 21.9 mph N/A   Overcast
5:16 AM 30.2 °F 18.5 °F 26.6 °F 86% 30.10 in 10.0 mi West 17.3 mph 20.7 mph N/A   Overcast
5:36 AM 28.4 °F 16.2 °F 26.6 °F 93% 30.10 in 10.0 mi West 17.3 mph - N/A   Overcast
5:56 AM 28.4 °F 16.2 °F 24.8 °F 86% 30.10 in 10.0 mi West 17.3 mph - N/A   Overcast
6:16 AM 28.4 °F 15.8 °F 24.8 °F 86% 30.10 in 10.0 mi West 18.4 mph - N/A   Overcast
6:36 AM 28.4 °F 15.8 °F 24.8 °F 86% 30.11 in 10.0 mi West 18.4 mph - N/A   Overcast
6:56 AM 28.4 °F 16.2 °F 24.8 °F 86% 30.11 in 10.0 mi West 17.3 mph - N/A   Overcast
7:16 AM 28.4 °F 17.0 °F 24.8 °F 86% 30.12 in 10.0 mi West 15.0 mph - N/A   Overcast
7:36 AM 28.4 °F 18.0 °F 24.8 °F 86% 30.12 in 10.0 mi West 12.7 mph - N/A   Overcast
7:56 AM 28.4 °F 18.5 °F 24.8 °F 86% 30.12 in 10.0 mi West 11.5 mph - N/A   Overcast
8:16 AM 28.4 °F 19.1 °F 26.6 °F 93% 30.13 in 10.0 mi West 10.4 mph - N/A   Overcast
8:36 AM 28.4 °F 19.7 °F 26.6 °F 93% 30.14 in 10.0 mi WNW 9.2 mph - N/A   Overcast
8:56 AM 28.4 °F 23.3 °F 26.6 °F 93% 30.14 in 10.0 mi West 4.6 mph - N/A   Overcast
9:16 AM 28.4 °F 22.2 °F 26.6 °F 93% 30.15 in 10.0 mi WNW 5.8 mph - N/A   Overcast
9:36 AM 28.4 °F 19.7 °F 24.8 °F 86% 30.16 in 5.0 mi North 9.2 mph - N/A   Overcast
9:56 AM 28.4 °F 19.7 °F 24.8 °F 86% 30.16 in 8.0 mi NNE 9.2 mph - N/A   Overcast
10:16 AM 28.4 °F 21.2 °F 24.8 °F 86% 30.17 in 5.0 mi NNE 6.9 mph - N/A   Overcast
10:36 AM 28.4 °F 20.4 °F 24.8 °F 86% 30.17 in 9.0 mi North 8.1 mph - N/A   Overcast
10:56 AM 26.6 °F 19.1 °F 21.2 °F 80% 30.18 in 10.0 mi North 6.9 mph - N/A   Overcast
11:16 AM 28.4 °F 22.2 °F 23.0 °F 80% 30.19 in 10.0 mi NNW 5.8 mph - N/A   Overcast
11:36 AM 28.4 °F 21.2 °F 23.0 °F 80% 30.19 in 10.0 mi NNW 6.9 mph - N/A   Overcast
11:56 AM 28.4 °F 23.3 °F 23.0 °F 80% 30.19 in 10.0 mi NNW 4.6 mph - N/A   Overcast
12:16 PM 28.4 °F 24.6 °F 21.2 °F 74% 30.19 in 10.0 mi North 3.5 mph - N/A   Overcast
12:36 PM 28.4 °F - 19.4 °F 69% 30.20 in 10.0 mi Calm Calm - N/A   Overcast
12:56 PM 28.4 °F - 21.2 °F 74% 30.20 in 10.0 mi Calm Calm - N/A   Overcast
1:16 PM 28.4 °F 24.6 °F 21.2 °F 74% 30.21 in 10.0 mi West 3.5 mph - N/A   Overcast
1:36 PM 28.4 °F - 21.2 °F 74% 30.21 in 10.0 mi Calm Calm - N/A   Overcast
1:56 PM 28.4 °F - 21.2 °F 74% 30.20 in 10.0 mi Calm Calm - N/A   Overcast
2:16 PM 28.4 °F 24.6 °F 21.2 °F 74% 30.21 in 10.0 mi WNW 3.5 mph - N/A   Overcast
2:36 PM 28.4 °F - 21.2 °F 74% 30.21 in 10.0 mi Calm Calm - N/A   Overcast
2:56 PM 28.4 °F - 21.2 °F 74% 30.21 in 10.0 mi Calm Calm - N/A   Overcast
3:16 PM 28.4 °F - 21.2 °F 74% 30.21 in 10.0 mi Calm Calm - N/A   Overcast
3:36 PM 28.4 °F 24.6 °F 23.0 °F 80% 30.21 in 10.0 mi WNW 3.5 mph - N/A   Overcast
3:56 PM 28.4 °F 23.3 °F 24.8 °F 86% 30.20 in 10.0 mi West 4.6 mph - N/A   Overcast
4:16 PM 28.4 °F 21.2 °F 24.8 °F 86% 30.20 in 10.0 mi West 6.9 mph - N/A   Overcast
4:36 PM 28.4 °F 19.1 °F 24.8 °F 86% 30.20 in 10.0 mi West 10.4 mph - N/A   Overcast
4:56 PM 28.4 °F 19.7 °F 24.8 °F 86% 30.20 in 10.0 mi West 9.2 mph - N/A   Overcast
5:16 PM 28.4 °F 18.0 °F 24.8 °F 86% 30.20 in 10.0 mi West 12.7 mph - N/A   Overcast
5:36 PM 28.4 °F 18.5 °F 24.8 °F 86% 30.20 in 10.0 mi West 11.5 mph - N/A   Overcast
5:56 PM 28.4 °F 19.7 °F 23.0 °F 80% 30.20 in 10.0 mi West 9.2 mph - N/A   Overcast
6:16 PM 28.4 °F 19.1 °F 24.8 °F 86% 30.20 in 10.0 mi West 10.4 mph - N/A   Overcast
6:36 PM 28.4 °F 19.1 °F 23.0 °F 80% 30.20 in 10.0 mi West 10.4 mph - N/A   Overcast
6:56 PM 28.4 °F 18.5 °F 24.8 °F 86% 30.20 in 10.0 mi WSW 11.5 mph - N/A   Overcast
7:16 PM 26.6 °F 15.7 °F 24.8 °F 93% 30.19 in 10.0 mi WSW 12.7 mph - N/A   Overcast
7:36 PM 26.6 °F 15.2 °F 23.0 °F 86% 30.19 in 10.0 mi West 13.8 mph - N/A   Overcast
7:56 PM 26.6 °F 14.3 °F 21.2 °F 80% 30.19 in 10.0 mi West 16.1 mph - N/A   Overcast
8:16 PM 26.6 °F 15.2 °F 19.4 °F 74% 30.19 in 10.0 mi West 13.8 mph - N/A   Mostly Cloudy
8:36 PM 26.6 °F 15.2 °F 19.4 °F 74% 30.19 in 10.0 mi WSW 13.8 mph - N/A   Scattered Clouds
8:56 PM 26.6 °F 15.7 °F 21.2 °F 80% 30.19 in 10.0 mi WSW 12.7 mph - N/A   Mostly Cloudy
9:16 PM 26.6 °F 16.2 °F 19.4 °F 74% 30.19 in 10.0 mi WSW 11.5 mph - N/A   Scattered Clouds
9:36 PM 26.6 °F 15.7 °F 17.6 °F 69% 30.19 in 10.0 mi WSW 12.7 mph - N/A   Partly Cloudy
9:56 PM 26.6 °F 16.2 °F 17.6 °F 69% 30.19 in 10.0 mi WSW 11.5 mph - N/A   Mostly Cloudy
10:16 PM 26.6 °F 14.7 °F 17.6 °F 69% 30.18 in 10.0 mi WSW 15.0 mph - N/A   Overcast
10:36 PM 26.6 °F 15.7 °F 17.6 °F 69% 30.18 in 10.0 mi WSW 12.7 mph - N/A   Overcast
10:56 PM 26.6 °F 13.1 °F 17.6 °F 69% 30.17 in 10.0 mi WSW 19.6 mph - N/A   Overcast
11:16 PM 26.6 °F 12.7 °F 17.6 °F 69% 30.17 in 10.0 mi WSW 20.7 mph - N/A   Overcast
11:36 PM 26.6 °F 13.8 °F 19.4 °F 74% 30.17 in 10.0 mi WSW 17.3 mph - N/A   Overcast
11:56 PM 24.8 °F 11.9 °F 17.6 °F 74% 30.17 in 10.0 mi WSW 16.1 mph - N/A   Overcast